Portada
METAR-TAF:

METAR-TAF

Aeropuertos :

Base Aérea de Valencia-Bétera

Valencia, España

latitud: 39-37-26N, longitud: 0-28-26W, altitud: 127 m

Observación

El informe se hizo hace 20 minutos, a las 07:00 UTC
Viento 3 kt del oeste, variando entre sur y noroeste
Temperatura 20°C
Humedad 60%
Presión 1013 hPa
Visibilidad 10 km o más

METAR: LEBT 270700Z AUTO 26003KT 190V320 9999 NCD 20/12 Q1013

Hora: 09:20 (07:20 UTC)


TAF: falta

Observaciones y pronósticos meteorológicos de más de 4000 aeropuertos (mensajes METAR y TAF).

Los puntos amarillos y rojos representan las estaciones disponibles.

Ponga el ratón en el punto deseado para ver el nombre de la estación.

Haga clic para ver las observaciones y los pronósticos meteorológicos.

Para cambiar el mapa : haga clic en los botones verdes con una cruz de color negro para hacer un zoom, en el botón verde con un guión para alejar o en las flechas verdes para mapas adyacentes.


METAR-TAF: